Weather History for Galliano, LA

Change the Weather History Date:

Wednesday, July 31, 2013

  Actual Average (KAXO) Record (KAXO)
Temperature  
Mean Temperature 85 °F -  
Max Temperature 94 °F 84 °F 95 °F (2001)
Min Temperature 76 °F 80 °F 73 °F (2000)
Cooling Degree Days 20    
Growing Degree Days 35 (Base 50)    
Moisture  
Dew Point 76 °F    
Average Humidity 79    
Maximum Humidity 95    
Minimum Humidity 54    
Precipitation  
Precipitation 0.00 in - - ()
Sea Level Pressure  
Sea Level Pressure 30.06 in    
Wind  
Wind Speed 2 mph (SW)    
Max Wind Speed 9 mph    
Max Gust Speed -    
Visibility 10 miles    
Events Rain , Thunderstorm    
Averages and records for this station are not official NWS values.
T = Trace of Precipitation, MM = Missing Value Source: NWS Daily Summary

Daily Weather History Graph

Daily Weather History Graph

Search for Another Location

Airport:

Trip Planner

Search our weather history database for the weather conditions in past years. The results will help you decide how hot, cold, wet, or windy it might be!

Date:

Astronomy

Jul. 31, 2013 Rise Set
Actual Time 6:20 AM CDT 7:53 PM CDT
Civil Twilight 5:54 AM CDT 8:19 PM CDT
Nautical Twilight 5:23 AM CDT 8:50 PM CDT
Astronomical Twilight 4:51 AM CDT 9:22 PM CDT
Moon 1:15 AM CDT (7/31) 3:08 PM CDT (7/31)
Length of Visible Light 14h 24m
Length of Day
13h 33m
Waning Crescent, 31% of the Moon is Illuminated
Jul 31
Waning Crescent
Aug 6
New
Aug 14
First Quarter
Aug 20
Full
Aug 28
Last Quarter

Hourly Weather History & Observations

Time (CDT) Temp. Heat Index Dew Point Humidity Pressure Visibility Wind Dir Wind Speed Gust Speed Precip Events Conditions
12:15 AM 79.7 °F - 76.3 °F 89% 30.09 in 10.0 mi Calm Calm - N/A   Clear
12:35 AM 79.2 °F - 76.5 °F 91% 30.09 in 10.0 mi Calm Calm - N/A   Scattered Clouds
12:55 AM 78.8 °F - 76.6 °F 93% 30.09 in 10.0 mi SSE 3.5 mph - N/A   Clear
1:15 AM 79.9 °F - 76.8 °F 90% 30.08 in 10.0 mi Calm Calm - N/A   Clear
1:55 AM 78.4 °F - 75.9 °F 92% 30.09 in 10.0 mi Calm Calm - N/A   Clear
2:15 AM 78.1 °F - 75.9 °F 93% 30.08 in 10.0 mi Calm Calm - N/A   Clear
2:35 AM 78.1 °F - 76.1 °F 94% 30.08 in 10.0 mi Calm Calm - N/A   Clear
2:55 AM 77.9 °F - 75.9 °F 94% 30.08 in 10.0 mi Calm Calm - N/A   Scattered Clouds
3:15 AM 78.4 °F - 76.1 °F 92% 30.07 in 10.0 mi Calm Calm - N/A   Scattered Clouds
3:35 AM 78.1 °F - 75.2 °F 91% 30.07 in 10.0 mi Calm Calm - N/A   Clear
3:55 AM 77.9 °F - 75.2 °F 91% 30.07 in 10.0 mi Calm Calm - N/A   Clear
4:15 AM 77.4 °F - 75.2 °F 93% 30.08 in 10.0 mi Calm Calm - N/A   Clear
4:35 AM 77.2 °F - 75.0 °F 93% 30.08 in 10.0 mi Calm Calm - N/A   Clear
4:55 AM 77.4 °F - 75.2 °F 93% 30.08 in 10.0 mi Calm Calm - N/A   Clear
5:15 AM 76.8 °F - 74.7 °F 93% 30.08 in 10.0 mi Calm Calm - N/A   Clear
5:35 AM 76.5 °F - 74.7 °F 94% 30.08 in 10.0 mi Calm Calm - N/A   Clear
5:55 AM 76.3 °F - 74.5 °F 94% 30.08 in 10.0 mi Calm Calm - N/A   Clear
6:15 AM 76.5 °F - 74.7 °F 94% 30.09 in 10.0 mi Calm Calm - N/A   Clear
6:35 AM 76.6 °F - 74.7 °F 94% 30.09 in 10.0 mi Calm Calm - N/A   Clear
6:55 AM 77.4 °F - 75.6 °F 94% 30.09 in 10.0 mi Calm Calm - N/A   Clear
7:15 AM 77.5 °F - 75.9 °F 95% 30.10 in 10.0 mi Calm Calm - N/A   Clear
7:35 AM 79.0 °F - 77.2 °F 94% 30.10 in 10.0 mi Calm Calm - N/A   Clear
7:55 AM 80.8 °F 88.7 °F 78.8 °F 94% 30.10 in 10.0 mi Calm Calm - N/A   Clear
8:15 AM 83.1 °F 94.3 °F 79.2 °F 88% 30.11 in 10.0 mi Calm Calm - N/A   Clear
8:35 AM 85.6 °F 99.2 °F 79.2 °F 81% 30.11 in 10.0 mi Calm Calm - N/A   Clear
8:55 AM 86.9 °F 99.9 °F 78.3 °F 75% 30.11 in 10.0 mi WNW 3.5 mph - N/A   Clear
9:15 AM 86.9 °F 99.3 °F 77.7 °F 74% 30.11 in 10.0 mi Calm Calm - N/A   Mostly Cloudy
9:35 AM 88.0 °F 99.6 °F 76.8 °F 69% 30.12 in 10.0 mi WSW 3.5 mph - N/A   Mostly Cloudy
9:55 AM 89.1 °F 100.8 °F 76.3 °F 66% 30.12 in 10.0 mi WSW 4.6 mph - N/A   Mostly Cloudy
10:15 AM 88.9 °F 101.5 °F 77.2 °F 68% 30.11 in 10.0 mi SW 5.8 mph - N/A   Scattered Clouds
10:35 AM 88.9 °F 100.9 °F 76.8 °F 67% 30.11 in 10.0 mi West 4.6 mph - N/A   Scattered Clouds
10:55 AM 90.7 °F 103.2 °F 76.5 °F 63% 30.11 in 10.0 mi SW 3.5 mph - N/A   Scattered Clouds
11:15 AM 91.9 °F 103.2 °F 75.4 °F 58% 30.10 in 10.0 mi SW 4.6 mph - N/A   Scattered Clouds
11:35 AM 92.3 °F 104.1 °F 75.4 °F 58% 30.10 in 10.0 mi West 4.6 mph - N/A   Scattered Clouds
11:55 AM 92.5 °F 103.2 °F 74.8 °F 56% 30.10 in 10.0 mi SW 5.8 mph - N/A   Clear
12:15 PM 93.2 °F 105.0 °F 75.6 °F 56% 30.09 in 10.0 mi WSW 6.9 mph - N/A   Scattered Clouds
12:35 PM 93.2 °F 105.7 °F 75.7 °F 57% 30.09 in 10.0 mi SSW 4.6 mph - N/A   Scattered Clouds
12:55 PM 92.8 °F 104.1 °F 74.8 °F 56% 30.08 in 10.0 mi SSW 4.6 mph - N/A   Scattered Clouds
1:15 PM 93.7 °F 105.0 °F 75.0 °F 54% 30.07 in 10.0 mi SW 5.8 mph - N/A   Scattered Clouds
1:35 PM 94.1 °F 107.3 °F 76.3 °F 56% 30.06 in 10.0 mi SSW 9.2 mph - N/A   Scattered Clouds
1:55 PM 91.8 °F 104.1 °F 76.3 °F 60% 30.05 in 10.0 mi South 6.9 mph - N/A   Mostly Cloudy
2:15 PM 91.4 °F 105.1 °F 77.2 °F 63% 30.05 in 10.0 mi SSW 6.9 mph - N/A Thunderstorm Overcast
2:35 PM 90.0 °F 102.5 °F 77.0 °F 65% 30.04 in 10.0 mi SSW 8.1 mph - N/A   Overcast
2:55 PM 89.1 °F 101.4 °F 76.8 °F 67% 30.04 in 10.0 mi SSW 6.9 mph - N/A Thunderstorm Thunderstorm
3:15 PM 88.7 °F 101.6 °F 77.2 °F 69% 30.04 in 10.0 mi NW 6.9 mph - N/A Thunderstorm Thunderstorm
3:35 PM 85.5 °F 95.9 °F 76.6 °F 75% 30.04 in 10.0 mi Calm Calm - N/A Thunderstorm Scattered Clouds
3:55 PM 86.9 °F 98.8 °F 77.2 °F 73% 30.04 in 10.0 mi WNW 6.9 mph - N/A Thunderstorm Scattered Clouds
4:15 PM 84.7 °F 94.8 °F 76.6 °F 77% 30.03 in 10.0 mi WSW 4.6 mph - N/A Thunderstorm Scattered Clouds
4:35 PM 85.5 °F 96.3 °F 77.0 °F 76% 30.02 in 10.0 mi WSW 3.5 mph - N/A Rain , Thunderstorm Light Thunderstorms and Rain
4:55 PM 85.3 °F 97.2 °F 78.3 °F 79% 30.02 in 10.0 mi SSW 8.1 mph - N/A Rain , Thunderstorm Light Thunderstorms and Rain
5:15 PM 84.7 °F 96.1 °F 77.9 °F 80% 30.01 in 10.0 mi SSW 5.8 mph - N/A Thunderstorm Clear
5:35 PM 85.3 °F 95.4 °F 76.5 °F 75% 30.01 in 10.0 mi SSW 5.8 mph - N/A   Clear
5:55 PM 85.3 °F 95.8 °F 77.0 °F 76% 30.00 in 10.0 mi SSW 5.8 mph - N/A   Scattered Clouds
6:15 PM 88.0 °F 100.2 °F 77.0 °F 70% 30.00 in 10.0 mi SSW 5.8 mph - N/A   Scattered Clouds
6:35 PM 88.0 °F 101.3 °F 77.9 °F 72% 30.00 in 10.0 mi South 6.9 mph - N/A   Clear
6:55 PM 87.8 °F 101.3 °F 78.3 °F 73% 30.01 in 10.0 mi South 8.1 mph - N/A   Clear
7:15 PM 87.1 °F 99.8 °F 78.1 °F 74% 30.01 in 10.0 mi South 5.8 mph - N/A   Clear
7:35 PM 86.0 °F 97.8 °F 77.5 °F 76% 30.01 in 10.0 mi South 6.9 mph - N/A   Clear
7:55 PM 85.1 °F 96.2 °F 77.4 °F 78% 30.00 in 10.0 mi South 6.9 mph - N/A   Clear
8:15 PM 84.9 °F 95.3 °F 77.0 °F 77% 30.01 in 10.0 mi South 6.9 mph - N/A   Clear
8:35 PM 84.6 °F 94.7 °F 77.2 °F 78% 30.00 in 10.0 mi South 5.8 mph - N/A   Clear
8:55 PM 83.7 °F 93.4 °F 77.2 °F 81% 30.01 in 10.0 mi SSW 5.8 mph - N/A   Clear
9:15 PM 83.5 °F 92.9 °F 77.0 °F 81% 30.01 in 10.0 mi Calm Calm - N/A   Clear
9:35 PM 83.3 °F 92.1 °F 76.5 °F 80% 30.02 in 10.0 mi SSW 3.5 mph - N/A   Clear
9:55 PM 82.8 °F 91.0 °F 76.5 °F 81% 30.02 in 10.0 mi South 3.5 mph - N/A   Clear
10:15 PM 81.7 °F 89.0 °F 76.3 °F 84% 30.02 in 10.0 mi Calm Calm - N/A   Clear
10:35 PM 82.0 °F 89.7 °F 76.3 °F 83% 30.02 in 10.0 mi SSW 3.5 mph - N/A   Clear
10:55 PM 81.5 °F 88.5 °F 76.3 °F 84% 30.02 in 10.0 mi Calm Calm - N/A   Clear
11:15 PM 80.8 °F 87.1 °F 76.3 °F 86% 30.02 in 10.0 mi Calm Calm - N/A   Clear
11:35 PM 79.9 °F - 76.3 °F 89% 30.02 in 10.0 mi Calm Calm - N/A   Clear
11:55 PM 79.7 °F - 75.9 °F 88% 30.03 in 10.0 mi Calm Calm - N/A   Clear